Regional Weather Roundup
Issued by NWS

Home | Current Version | Previous Version | Text Only | Print | Product List | Glossary On
Versions: 1 2 3 4 5 6 7 8 9 10 11 12 13 14 15 16 17 18 19 20 21 22 23 24 25 26 27 28 29 30 31 32 33 34 35 36 37 38 39 40 41 42 43 44 45 46 47 48 49 50
000
ASUS44 KLIX 041901
RWRLA
LOUISIANA WEATHER ROUNDUP
NATIONAL WEATHER SERVICE NEW ORLEANS LA
100 PM CST WED MAR 04 2015

NOTE: "FAIR" INDICATES FEW OR NO CLOUDS BELOW 12,000 FEET WITH NO
      SIGNIFICANT WEATHER AND/OR OBSTRUCTIONS TO VISIBILITY.
      SKY/WX - SKY CONDITION AND SIGNIFICANT WEATHER.
      TMP - AIR TEMPERATURE.    DP   - DEWPOINT TEMPERATURE.
      RH  - RELATIVE HUMIDITY.  PRES - PRESSURE.
      HX  - HEAT INDEX.         WCI  - WIND CHILL INDEX.

*  THESE STATIONS ARE NOT NWS OR FAA STATIONS AND ARE NOT UNDER
   NWS QUALITY CONTROL.

LAZ040-048-061>063-065-066-069-042000-
SOUTHEAST LOUISIANA

CITY           SKY/WX    TMP DP  RH WIND       PRES   REMARKS
N.O. AUDUBON   NOT AVBL
N.O. INTL ARPT PTSUNNY   81  66  60 S18       29.94F
N.O. LAKEFRONT MOSUNNY   80  65  59 SW14      29.95F
SLIDELL        CLOUDY    77  69  76 S12       29.95F
BATON ROUGE    MOSUNNY   83  65  54 S20       29.92F
BOOTHVILLE     CLOUDY    78  70  76 S14       29.98F
BELLE CHASSE   PTSUNNY   82  68  61 S13G21    29.95F
BOGALUSA*        N/A     83  64  51 S16G23    29.96F
GALLIANO*      MOCLDY    82  69  64 S13       29.96F
NEW ROADS*     NOT AVBL
GONZALES*      NOT AVBL
HAMMOND*       NOT AVBL
HOUMA*         MOSUNNY   81  70  69 S17G25    29.95F
PORT FOURCHON* PTCLDY    79  70  73 S8        29.99F

$$

LAZ041-044-053-054-042000-
SOUTHWEST LOUISIANA

CITY           SKY/WX    TMP DP  RH WIND       PRES   REMARKS
LAKE CHARLES   PTSUNNY   79  69  71 S15G28    29.89F
LAFAYETTE      PTSUNNY   79  68  69 S18G28    29.92F
PATTERSON      PTSUNNY   81  70  69 S23G29    29.95F
SALT POINT       N/A     77  70  79 S9        29.92F
NEW IBERIA     PTSUNNY   80  69  69 S23G31    29.92F
CHENAULT AIRPK NOT AVBL

$$

LAZ027-028-042000-
CENTRAL LOUISIANA

CITY           SKY/WX    TMP DP  RH WIND       PRES   REMARKS
FORT POLK      NOT AVBL
ALEXANDRIA INT MOSUNNY   78  66  66 S16       29.88F
ALEXANDRIA     PTSUNNY   80  65  59 SW14      29.90F

$$

LAZ001-002-042000-
NORTHWEST LOUISIANA

CITY           SKY/WX    TMP DP  RH WIND       PRES   REMARKS
SHREVEPORT     CLOUDY    77  67  71 SW9G22    29.83F
BARKSDALE AFB  NOT AVBL
DTN SHREVEPORT CLOUDY    64  59  83 N14       29.84F

$$

LAZ014-016-042000-
NORTHEAST LOUISIANA

CITY           SKY/WX    TMP DP  RH WIND       PRES   REMARKS
MONROE         MOSUNNY   80  66  62 S15G31    29.85F
TALLULAH       MOSUNNY   81  64  56 SW14G26   29.88F

$$




USA.gov is the U.S. government's official web portal to all federal, state and local government web resources and services.